Flag for U.S.A. Weather past 2 weeks in Sandpoint, Idaho, U.S.A.

Now
68 °F

Sunny.


Feels Like: 68 °F
Forecast: 51 / 65 °F
Wind: No wind

Location: Sandpoint Airport

Current Time: May 24, 2015 at 9:09:01 PM

Latest Report: May 24, 2015 at 8:15 PM


Visibility: 10 mi

Pressure: 29.81 "Hg

Humidity: 40%

Dew point: 43 °F

Location of SandpointLocation

Historic Weather in Sandpoint — Graph

°F

Sandpoint temperature yesterday

Maximum temperature yesterday: 82 °F (at 4:35 PM)
Minimum temperature yesterday: 46 °F (at 4:35 AM)
Average temperature yesterday: 68 °F

Past Weeks' High & Low Weather Summary

 TemperatureHumidityPressure
High82 °F (May 22, 3:15 PM)100% (May 13, 1:55 PM)30.18 "Hg (May 13, 1:55 PM)
Low34 °F (May 10, 4:35 AM)14% (May 22, 3:55 PM)29.64 "Hg (May 15, 3:15 PM)
Average60 °F50%29.92 "Hg
* Reported May 9 7:15 PM — May 24 7:15 PM, Sandpoint, Weather by CustomWeather, © 2015

Note: Actual official high and low records may vary slightly from our data, if they occured in-between our weather recording intervals... More about our weather records

Advertising

Sandpoint weather history for previous 24 hours

 ConditionsComfort  
Time TempWeatherWind HumidityBarometerVisibility
7:15 PM
Sun, May 24
72 °FSunny.No wind33%29.81 "Hg10 mi
6:55 PM72 °FSunny.3 mph33%29.81 "Hg10 mi
6:15 PM73 °FSunny.6 mph27%29.81 "Hg10 mi
5:55 PM73 °FSunny.No wind27%29.81 "Hg10 mi
5:35 PM77 °FSunny.3 mph24%29.82 "Hg10 mi
5:15 PM77 °FSunny.3 mph22%29.82 "Hg10 mi
4:55 PM77 °FSunny.No wind26%29.83 "Hg10 mi
4:35 PM77 °FSunny.No wind22%29.83 "Hg10 mi
4:15 PM77 °FSunny.No wind22%29.84 "Hg10 mi
3:55 PM77 °FSunny.No wind22%29.85 "Hg10 mi
3:35 PM77 °FSunny.No wind21%29.85 "Hg10 mi
3:15 PM77 °FSunny.3 mph22%29.86 "Hg10 mi
2:15 PM77 °FSunny.7 mph22%29.88 "Hg10 mi
1:55 PM77 °FSunny.7 mph24%29.89 "Hg10 mi
1:35 PM77 °FSunny.7 mph22%29.90 "Hg10 mi
1:15 PM77 °FSunny.3 mph24%29.91 "Hg10 mi
12:55 PM77 °FSunny.6 mph24%29.91 "Hg10 mi
12:35 PM75 °FSunny.No wind25%29.92 "Hg10 mi
12:15 PM73 °FSunny.No wind27%29.93 "Hg10 mi
11:55 AM73 °FSunny.5 mph33%29.94 "Hg10 mi
11:40 AM72 °FSunny.3 mph36%29.95 "Hg10 mi
11:15 AM72 °FSunny.3 mph36%29.96 "Hg10 mi
10:50 AM70 °FSunny.6 mph35%29.96 "Hg10 mi
10:35 AM70 °FSunny.No wind35%29.97 "Hg10 mi
10:15 AM68 °FSunny.No wind38%29.98 "Hg10 mi
9:55 AM68 °FSunny.3 mph40%29.98 "Hg10 mi
9:35 AM66 °FMild.3 mph43%29.99 "Hg10 mi
9:15 AM64 °FMild.3 mph49%30.00 "Hg10 mi
8:55 AM63 °FSunny.5 mph52%30.00 "Hg10 mi
8:35 AM63 °FSunny.6 mph49%30.00 "Hg10 mi
8:15 AM63 °FSunny.5 mph45%30.00 "Hg10 mi
7:55 AM59 °FSunny.No wind55%30.01 "Hg10 mi
7:15 AM57 °FSunny.No wind59%30.02 "Hg10 mi
6:55 AM55 °FSunny.No wind59%30.02 "Hg10 mi
6:15 AM50 °FSunny.No wind76%30.03 "Hg10 mi
5:55 AM46 °FClear.No wind82%30.03 "Hg10 mi
5:35 AM46 °FClear.No wind82%30.03 "Hg10 mi
5:15 AM46 °FClear.No wind82%30.03 "Hg10 mi
4:55 AM46 °FClear.No wind82%30.02 "Hg10 mi
4:40 AM48 °FClear.No wind76%30.02 "Hg10 mi
4:15 AM46 °FClear.No wind82%30.02 "Hg10 mi
3:55 AM48 °FClear.No wind76%30.02 "Hg10 mi
3:35 AM50 °FClear.No wind71%30.02 "Hg10 mi
3:15 AM48 °FClear.No wind76%30.02 "Hg10 mi
2:55 AM50 °FClear.No wind76%30.02 "Hg10 mi
2:35 AM50 °FClear.No wind71%30.02 "Hg10 mi
2:15 AM52 °FClear.No wind72%30.01 "Hg10 mi
1:55 AM52 °FClear.No wind72%30.01 "Hg10 mi
1:15 AM55 °FClear.No wind59%30.01 "Hg10 mi
12:55 AM59 °FClear.No wind48%30.01 "Hg10 mi
12:35 AM61 °FClear.5 mph42%30.01 "Hg10 mi
12:15 AM63 °FClear.3 mph39%30.00 "Hg10 mi
11:55 PM
Sat, May 23
64 °FClear.5 mph37%30.01 "Hg10 mi
11:35 PM64 °FClear.6 mph37%30.00 "Hg10 mi
11:15 PM68 °FClear.7 mph30%30.00 "Hg10 mi
10:55 PM70 °FClear.8 mph29%30.00 "Hg10 mi
10:35 PM68 °FClear.9 mph33%30.00 "Hg10 mi
10:15 PM70 °FClear.5 mph29%30.00 "Hg10 mi
9:55 PM70 °FClear.3 mph31%29.99 "Hg10 mi
9:40 PM72 °FClear.5 mph27%29.99 "Hg10 mi
9:15 PM72 °FScattered clouds.5 mph25%29.98 "Hg10 mi
Weather by CustomWeather, © 2015

See weather overviewHow to use our weather pages